Notices

What's New in latest Release from April 7th, 2021:

- Updated Glossary, including Speed of Maximum Gust, and Total Hourly Precipitation

- Updated national and regional climate services offices contacts and prices information

- Addition of station inventory lists for 1981-2010, 1971-2000, and 1961-1990 Normals.

If you haven't already, please take our survey and provide feedback about our website: https://eccc.sondage-survey.ca/f/LanguageSelection.aspx?s=442ca660-fcf1-47c0-95a9-59707d6fd709

Hourly Data Report for July 01, 2020

OTTAWA INTL A
ONTARIO
Current Station Operator: NAVCAN

45°19'00.000" N
75°40'00.000" W
114.90 m
6106001
71628
YOW

Download Data

Hourly Data (July 2020)
Hourly Data Report for July 1, 2020
TIME
LST
Temp Definition
°C
Dew Point Definition
°C
Rel Hum Definition
%
Precip. Amount Definition
mm

Wind Dir Definition
10's deg

Wind Spd Definition
km/h
Visibility Definition
km
Stn Press Definition
kPa
Hmdx Definition


Wind Chill Definition


Weather Definition


00:00 18.4 16.7 90   4 14 24.1 100.09     LegendNANA
01:00 17.7 16.3 92     0 24.1 100.11     Mostly Cloudy
02:00 19.1 17.0 87   36 3 24.1 100.08     LegendNANA
03:00 16.8 15.6 93   36 3 24.1 100.08     LegendNANA
04:00 17.6 16.6 94   7 4 24.1 100.08     Mostly Cloudy
05:00 18.8 16.9 89   4 8 24.1 100.10     LegendNANA
06:00 20.0 17.3 84   29 6 24.1 100.11 25   LegendNANA
07:00 21.5 16.5 73   31 9 24.1 100.15 26   Mostly Cloudy
08:00 23.1 16.4 66   33 10 24.1 100.14 28   LegendNANA
09:00 23.9 16.9 64   36 9 24.1 100.11 29   LegendNANA
10:00 26.0 17.6 59   34 10 24.1 100.04 32   Mainly Clear
11:00 27.4 17.2 53   1 11 24.1 99.99 33   LegendNANA
12:00 27.9 17.0 51   4 13 24.1 99.94 33   LegendNANA
13:00 29.3 15.5 42   6 12 24.1 99.87 34   Mostly Cloudy
14:00 30.2 16.2 42   8 7 24.1 99.82 35   LegendNANA
15:00 29.5 15.7 43   7 16 24.1 99.78 34   LegendNANA
16:00 30.5 16.4 42   7 8 24.1 99.74 35   Mainly Clear
17:00 30.3 15.7 41   19 8 24.1 99.70 35   LegendNANA
18:00 28.8 17.6 50   18 3 24.1 99.69 35   LegendNANA
19:00 26.9 17.3 55   16 10 24.1 99.70 32   Mostly Cloudy
20:00 25.3 17.2 60   19 10 24.1 99.69 31   LegendNANA
21:00 22.7 17.3 71   21 9 24.1 99.70 28   LegendNANA
22:00 22.4 17.2 72   22 10 24.1 99.70 28   Clear
23:00 22.9 16.6 67   24 9 24.1 99.69 28   LegendNANA

Notes on Data Quality.

Legend

  • E = Estimated
  • M = Missing
  • NA = Not Available*
  • [empty] = Indicates an unobserved value
Date modified: